User: anonymous   Login
Location: Albany
(35.0000°S, 118.0000°E)
Time: 14:51:56
(UTC-05:00)
Language:

Cosmos 1346 Rocket - Orbit

View from above orbital plane
View from above orbital plane
View from above satellite
View from above satellite

Ground track
Ground track

The orbit data is extracted from the following two-line orbital elements,

1 13121U 82027B   18023.17161497  .00001048  00000-0  65309-4 0  9997
2 13121  81.1655 226.4445 0024717 163.6164 196.5865 15.08480928950145
Epoch (UTC): 23 January 2018 04:07:07
Eccentricity: 0.0024717
inclination: 81.1655°
perigee height: 524 km
apogee height: 558 km
right ascension of ascending node: 226.4445°
argument of perigee: 163.6164°
revolutions per day: 15.08480928
mean anomaly at epoch: 196.5865°
orbit number at epoch: 95014

The dashed part of the orbit path shows where the satellite is in the earth's shadow,  

DLR